Flag for New Zealand Weather past 2 weeks in Auckland, New Zealand

Now
61 °F

Overcast.


Feels Like: 61 °F
Forecast: 57 / 62 °F
Wind: 13 mph from Northeast

Location: Auckland Airport

Current Time: Aug 1, 2014 at 1:59:25 PM

Latest Report: Aug 1, 2014 at 1:00 PM


Visibility: N/A

Pressure: 30.33 "Hg

Humidity: 83%

Dew point: 55 °F

Location of AucklandLocation

Historic Weather in Auckland — Graph

°F

Auckland temperature yesterday

Maximum temperature yesterday: 64 °F (at 12:00 PM)
Minimum temperature yesterday: 52 °F (at 12:00 AM)
Average temperature yesterday: 56 °F

Past Weeks' High & Low Weather Summary

 TemperatureHumidityPressure
High64 °F (Jul 31, 12:00 PM)100% (Jul 19, 2:00 AM)30.39 "Hg (Jul 19, 2:00 AM)
Low36 °F (Jul 18, 8:00 AM)51% (Jul 28, 3:30 PM)29.27 "Hg (Jul 20, 3:30 AM)
Average50 °F85%29.93 "Hg
* Reported Jul 17 1:00 PM — Aug 1 1:00 PM, Auckland, Weather by CustomWeather, © 2014

Note: Actual official high and low records may vary slightly from our data, if they occured in-between our weather recording intervals... More about our weather records

Advertising

Auckland weather history for previous 24 hours

 ConditionsComfort  
Time TempWeatherWind HumidityBarometerVisibility
1:00 PM
Aug 1
61 °FOvercast.13 mph83%30.33 "HgN/A
12:30 PM63 °FPartly sunny.12 mph83%30.33 "HgN/A
12:00 PM63 °FPassing clouds.13 mph83%30.36 "HgN/A
11:30 AM61 °FPartly sunny.10 mph88%30.36 "HgN/A
11:00 AM57 °FMostly cloudy.8 mph94%30.36 "HgN/A
10:30 AM57 °FPartly sunny.8 mph94%30.39 "HgN/A
10:00 AM55 °FMostly cloudy.5 mph94%30.39 "HgN/A
9:30 AM55 °FBroken clouds.7 mph94%30.39 "HgN/A
9:00 AM55 °FScattered clouds.2 mph94%30.39 "HgN/A
8:30 AM54 °FScattered clouds.5 mph100%30.39 "HgN/A
8:00 AM52 °FFog.No wind100%30.36 "Hg5 mi
7:30 AM52 °FFog.3 mph100%30.36 "Hg5 mi
7:00 AM50 °FScattered clouds.6 mph100%30.36 "HgN/A
6:30 AM52 °FPartly sunny.6 mph100%30.36 "Hg5 mi
6:00 AM52 °FDense fog.5 mph100%30.36 "Hg1 mi
5:30 AM50 °FFog.3 mph100%30.36 "Hg0 mi
5:00 AM48 °FFog.3 mph100%30.33 "Hg0 mi
4:30 AM46 °FFog.3 mph100%30.33 "Hg0 mi
4:00 AM48 °FFog.No wind100%30.33 "Hg0 mi
3:30 AM48 °FFog.2 mph100%30.33 "Hg0 mi
3:00 AM48 °FFog.2 mph100%30.33 "Hg0 mi
2:30 AM50 °FFog.2 mph100%30.33 "Hg0 mi
2:00 AM50 °FFog.2 mph94%30.33 "Hg2 mi
1:30 AM50 °FPassing clouds.3 mph100%30.33 "Hg4 mi
1:00 AM50 °FPassing clouds.3 mph100%30.33 "Hg5 mi
12:30 AM52 °FCool.6 mph94%30.33 "HgN/A
12:00 AM52 °FCool.7 mph100%30.33 "HgN/A
11:30 PM
Jul 31
52 °FCool.7 mph100%30.30 "HgN/A
11:00 PM52 °FCool.6 mph94%30.30 "HgN/A
10:30 PM52 °FCool.5 mph100%30.30 "HgN/A
10:00 PM54 °FCool.6 mph100%30.30 "HgN/A
9:30 PM52 °FCool.3 mph100%30.30 "HgN/A
9:00 PM54 °FCool.6 mph94%30.30 "HgN/A
8:30 PM55 °FCool.6 mph88%30.30 "HgN/A
8:00 PM55 °FCool.6 mph88%30.30 "HgN/A
7:30 PM57 °FCool.7 mph88%30.30 "HgN/A
7:00 PM57 °FCool.6 mph82%30.30 "HgN/A
6:30 PM57 °FCool.7 mph88%30.30 "HgN/A
6:00 PM57 °FCool.7 mph88%30.30 "HgN/A
5:30 PM59 °FCool.8 mph82%30.27 "HgN/A
5:00 PM61 °FCool.8 mph77%30.27 "HgN/A
4:30 PM63 °FMild.9 mph73%30.27 "HgN/A
4:00 PM63 °FMild.8 mph77%30.27 "HgN/A
3:30 PM63 °FMild.10 mph73%30.27 "HgN/A
2:30 PM63 °FMild.7 mph77%30.27 "HgN/A
2:00 PM64 °FPassing clouds.7 mph68%30.27 "HgN/A
1:30 PM64 °FPassing clouds.7 mph73%30.27 "HgN/A
1:00 PM63 °FMild.6 mph77%30.27 "HgN/A
Weather by CustomWeather, © 2014

See weather overviewHow to use our weather pages